• In Hungary
  • List of Countries
  • For 7 days
  • Water Temperature
  • Satellite Maps
  • Weather Map
  • News
  • Weather Widgets
  • user-avatar
    Login

    Hourly Weather Sloboda

    Today, 21 August, Tuesday

    Time Temperature Precipitation Wind Pressure Humidity
    00:00 +18°C° 0 mm 2 mps 741 mmHg 75%
    01:00 +18°C° 0 mm 3 mps 741 mmHg 75%
    02:00 +18°C° 0 mm 2 mps 741 mmHg 76%
    03:00 +18°C° 0 mm 3 mps 741 mmHg 76%
    04:00 +18°C° 0 mm 3 mps 741 mmHg 77%
    05:00 +17°C° 0 mm 3 mps 740 mmHg 78%
    06:00 +19°C° 0 mm 4 mps 740 mmHg 73%
    07:00 +21°C° 0 mm 4 mps 740 mmHg 68%
    08:00 +23°C° 0 mm 5 mps 740 mmHg 60%
    09:00 +24°C° 0 mm 6 mps 740 mmHg 57%
    10:00 +26°C° 0 mm 6 mps 739 mmHg 53%
    11:00 +28°C° 0 mm 7 mps 739 mmHg 49%
    12:00 +28°C° 0.4 mm 7 mps 739 mmHg 50%
    13:00 +28°C° 0.4 mm 7 mps 738 mmHg 52%
    14:00 +28°C° 0.4 mm 8 mps 738 mmHg 53%
    15:00 +27°C° 1 mm 7 mps 738 mmHg 60%
    16:00 +24°C° 1 mm 6 mps 738 mmHg 66%
    17:00 +23°C° 1 mm 5 mps 737 mmHg 73%
    18:00 +22°C° 0.4 mm 5 mps 738 mmHg 78%
    19:00 +20°C° 0.4 mm 4 mps 738 mmHg 83%
    20:00 +19°C° 0.4 mm 4 mps 738 mmHg 88%
    21:00 +18°C° 0 mm 3 mps 738 mmHg 89%
    22:00 +17°C° 0 mm 3 mps 739 mmHg 90%
    23:00 +17°C° 0 mm 3 mps 739 mmHg 91%

    Tomorrow, 22 August, Wednesday

    Time Temperature Precipitation Wind Pressure Humidity
    00:00 +16°C° 0 mm 3 mps 739 mmHg 91%
    01:00 +14°C° 0 mm 3 mps 740 mmHg 92%
    02:00 +13°C° 0 mm 3 mps 740 mmHg 92%
    03:00 +13°C° 0 mm 3 mps 740 mmHg 91%
    04:00 +13°C° 0 mm 3 mps 741 mmHg 91%
    05:00 +13°C° 0 mm 2 mps 741 mmHg 90%
    06:00 +13°C° 0 mm 3 mps 741 mmHg 84%
    07:00 +16°C° 0 mm 3 mps 742 mmHg 77%
    08:00 +17°C° 0 mm 4 mps 742 mmHg 70%
    09:00 +18°C° 0 mm 4 mps 743 mmHg 64%
    10:00 +19°C° 0 mm 4 mps 743 mmHg 57%
    11:00 +20°C° 0 mm 5 mps 743 mmHg 51%
    12:00 +20°C° 0 mm 5 mps 743 mmHg 49%
    13:00 +20°C° 0 mm 5 mps 744 mmHg 47%
    14:00 +21°C° 0 mm 5 mps 744 mmHg 44%
    15:00 +20°C° 0 mm 4 mps 744 mmHg 47%
    16:00 +20°C° 0 mm 3 mps 744 mmHg 50%
    17:00 +20°C° 0 mm 3 mps 744 mmHg 54%
    18:00 +18°C° 0 mm 3 mps 745 mmHg 57%
    19:00 +16°C° 0 mm 2 mps 745 mmHg 61%
    20:00 +15°C° 0 mm 2 mps 745 mmHg 65%
    21:00 +14°C° 0 mm 2 mps 746 mmHg 68%
    22:00 +13°C° 0 mm 2 mps 746 mmHg 70%
    23:00 +13°C° 0 mm 2 mps 746 mmHg 72%

    Day after tomorrow, 23 August, Thursday

    Time Temperature Precipitation Wind Pressure Humidity
    00:00 +12°C° 0 mm 2 mps 747 mmHg 74%
    01:00 +12°C° 0 mm 2 mps 747 mmHg 76%
    02:00 +11°C° 0 mm 1 mps 747 mmHg 78%
    03:00 +11°C° 0 mm 1 mps 747 mmHg 78%
    04:00 +11°C° 0 mm 1 mps 747 mmHg 79%
    05:00 +11°C° 0 mm 1 mps 748 mmHg 80%
    06:00 +12°C° 0 mm 1 mps 748 mmHg 73%
    07:00 +14°C° 0 mm 1 mps 748 mmHg 67%
    08:00 +16°C° 0 mm 1 mps 748 mmHg 61%
    09:00 +18°C° 0 mm 1 mps 748 mmHg 56%
    10:00 +20°C° 0 mm 1 mps 748 mmHg 51%
    11:00 +21°C° 0 mm 1 mps 748 mmHg 46%
    12:00 +21°C° 0 mm 1 mps 748 mmHg 44%
    13:00 +22°C° 0 mm 1 mps 748 mmHg 42%
    14:00 +22°C° 0 mm 1 mps 748 mmHg 41%
    15:00 +22°C° 0 mm 1 mps 747 mmHg 42%
    16:00 +22°C° 0 mm 1 mps 747 mmHg 44%
    17:00 +20°C° 0 mm 0 mps 747 mmHg 45%
    18:00 +20°C° 0 mm 1 mps 747 mmHg 48%
    19:00 +18°C° 0 mm 1 mps 747 mmHg 52%
    20:00 +15°C° 0 mm 1 mps 747 mmHg 55%
    21:00 +15°C° 0 mm 1 mps 747 mmHg 57%
    22:00 +15°C° 0 mm 1 mps 747 mmHg 58%
    23:00 +14°C° 0 mm 2 mps 747 mmHg 60%

    24 August, Friday

    Time Temperature Precipitation Wind Pressure Humidity
    00:00 +14°C° 0 mm 2 mps 747 mmHg 61%
    01:00 +13°C° 0 mm 1 mps 747 mmHg 63%
    02:00 +13°C° 0 mm 1 mps 747 mmHg 64%
    03:00 +13°C° 0 mm 1 mps 747 mmHg 66%
    04:00 +12°C° 0 mm 1 mps 747 mmHg 67%
    05:00 +12°C° 0 mm 1 mps 747 mmHg 68%
    06:00 +14°C° 0 mm 2 mps 747 mmHg 64%
    07:00 +16°C° 0 mm 2 mps 747 mmHg 60%
    08:00 +18°C° 0 mm 2 mps 747 mmHg 56%
    09:00 +19°C° 0 mm 2 mps 747 mmHg 52%
    10:00 +20°C° 0 mm 2 mps 747 mmHg 48%
    11:00 +23°C° 0 mm 2 mps 747 mmHg 45%
    12:00 +23°C° 0 mm 2 mps 746 mmHg 43%
    13:00 +24°C° 0 mm 2 mps 746 mmHg 41%
    14:00 +24°C° 0 mm 2 mps 746 mmHg 40%
    15:00 +24°C° 0 mm 2 mps 745 mmHg 43%
    16:00 +24°C° 0 mm 2 mps 745 mmHg 46%
    17:00 +23°C° 0 mm 1 mps 745 mmHg 49%
    18:00 +21°C° 0 mm 2 mps 745 mmHg 52%
    19:00 +19°C° 0 mm 2 mps 745 mmHg 54%
    20:00 +17°C° 0 mm 2 mps 745 mmHg 57%
    21:00 +16°C° 0 mm 2 mps 745 mmHg 58%
    22:00 +16°C° 0 mm 2 mps 745 mmHg 59%
    23:00 +15°C° 0 mm 2 mps 745 mmHg 61%

    25 August, Saturday

    Time Temperature Precipitation Wind Pressure Humidity
    00:00 +15°C° 0 mm 2 mps 745 mmHg 62%
    01:00 +15°C° 0 mm 2 mps 744 mmHg 63%
    02:00 +14°C° 0 mm 2 mps 744 mmHg 64%
    03:00 +14°C° 0 mm 2 mps 744 mmHg 66%
    04:00 +14°C° 0 mm 2 mps 744 mmHg 67%
    05:00 +13°C° 0 mm 2 mps 744 mmHg 68%
    06:00 +14°C° 0 mm 3 mps 744 mmHg 64%
    07:00 +17°C° 0 mm 3 mps 745 mmHg 60%
    08:00 +19°C° 0 mm 3 mps 745 mmHg 56%
    09:00 +21°C° 0 mm 4 mps 745 mmHg 52%
    10:00 +22°C° 0 mm 4 mps 745 mmHg 47%
    11:00 +25°C° 0 mm 4 mps 745 mmHg 42%
    12:00 +25°C° 0 mm 4 mps 744 mmHg 42%
    13:00 +26°C° 0 mm 4 mps 744 mmHg 41%
    14:00 +26°C° 0 mm 4 mps 744 mmHg 41%
    15:00 +26°C° 0 mm 4 mps 744 mmHg 44%
    16:00 +25°C° 0 mm 3 mps 743 mmHg 48%
    17:00 +24°C° 0 mm 3 mps 743 mmHg 52%
    18:00 +22°C° 0 mm 3 mps 743 mmHg 55%
    19:00 +20°C° 0 mm 3 mps 743 mmHg 57%
    20:00 +18°C° 0 mm 3 mps 743 mmHg 60%
    21:00 +18°C° 0 mm 3 mps 743 mmHg 60%
    22:00 +17°C° 0 mm 3 mps 743 mmHg 61%
    23:00 +16°C° 0 mm 3 mps 743 mmHg 61%

    26 August, Sunday

    Time Temperature Precipitation Wind Pressure Humidity
    00:00 +16°C° 0 mm 3 mps 743 mmHg 61%
    01:00 +16°C° 0 mm 3 mps 743 mmHg 61%
    02:00 +14°C° 0 mm 3 mps 743 mmHg 60%
    03:00 +14°C° 0 mm 3 mps 743 mmHg 61%
    04:00 +14°C° 0 mm 3 mps 743 mmHg 61%
    05:00 +13°C° 0 mm 3 mps 743 mmHg 61%
    06:00 +16°C° 0 mm 3 mps 744 mmHg 59%
    07:00 +18°C° 0 mm 4 mps 744 mmHg 56%
    08:00 +20°C° 0 mm 4 mps 744 mmHg 53%
    09:00 +21°C° 0 mm 4 mps 744 mmHg 49%
    10:00 +23°C° 0 mm 4 mps 744 mmHg 44%
    11:00 +26°C° 0 mm 5 mps 744 mmHg 40%
    12:00 +27°C° 0 mm 5 mps 744 mmHg 39%
    13:00 +27°C° 0 mm 5 mps 743 mmHg 37%
    14:00 +28°C° 0 mm 5 mps 743 mmHg 36%
    15:00 +27°C° 0 mm 4 mps 743 mmHg 41%
    16:00 +26°C° 0 mm 4 mps 743 mmHg 46%
    17:00 +26°C° 0 mm 3 mps 742 mmHg 51%
    18:00 +24°C° 0 mm 3 mps 742 mmHg 54%
    19:00 +21°C° 0 mm 3 mps 742 mmHg 57%
    20:00 +19°C° 0 mm 3 mps 742 mmHg 60%
    21:00 +19°C° 0 mm 3 mps 742 mmHg 61%
    22:00 +19°C° 0 mm 4 mps 742 mmHg 61%
    23:00 +18°C° 0 mm 4 mps 742 mmHg 62%
    Show more